This demonstration page uses our WeatherBlox Daily Observations layout. Learn more.

Left ArrowRight Arrow

38.88101, -77.10428

Hourly Observations for October 10, 2022

Temp ( °F °C ) Dew Point ( °F °C ) Humidity (%) Winds ( mph kmh ) Pressure ( in mb ) Visibility ( mi km ) Precip ( " mm )
12:52 am 00:52 Clear 48 8.9 43 6.1 83 83 NNW 7 11 30.23 1024 10 16 0.00 0.00
1:52 am 01:52 Clear 51 10.6 44 6.7 77 77 Calm 30.23 1024 10 16 0.00 0.00
2:52 am 02:52 Clear 47 8.3 41 5 80 80 WSW 5 7 30.23 1024 10 16 0.00 0.00
3:52 am 03:52 Clear 47 8.3 41 5 80 80 SW 3 6 30.22 1024 10 16 0.00 0.00
4:52 am 04:52 Clear 47 8.3 41 5 80 80 WSW 3 6 30.23 1024 10 16 0.00 0.00
5:52 am 05:52 Clear 46 7.8 41 5 82 82 Calm 30.24 1024 10 16 0.00 0.00
6:52 am 06:52 Mostly Clear 46 7.8 41 5 82 82 Calm 30.25 1025 10 16 0.00 0.00
7:52 am 07:52 Mostly Sunny 49 9.4 42 5.6 77 77 Calm 30.26 1025 10 16 0.00 0.00
8:52 am 08:52 Mostly Sunny 53 11.7 42 5.6 66 66 VRB 3 6 30.28 1026 10 16 0.00 0.00
9:52 am 09:52 Mostly Sunny 57 13.9 44 6.7 62 62 Calm 30.29 1026 10 16 0.00 0.00
10:52 am 10:52 Sunny 62 16.7 42 5.6 48 48 NNE 9 15 30.29 1026 10 16 0.00 0.00
11:52 am 11:52 Sunny 67 19.4 42 5.6 40 40 N 9 15 30.29 1026 10 16 0.00 0.00
12:52 pm 12:52 Sunny 68 20 37 2.8 32 32 W 6 9 30.28 1025 10 16 0.00 0.00
1:52 pm 13:52 Sunny 69 20.6 37 2.8 31 31 N 9 15 30.25 1025 10 16 0.00 0.00
2:52 pm 14:52 Sunny 70 21.1 40 4.4 33 33 N 5 7 30.24 1024 10 16 0.00 0.00
3:52 pm 15:52 Sunny 71 21.7 39 3.9 31 31 NW 9 15 30.23 1024 10 16 0.00 0.00
4:52 pm 16:52 Sunny 69 20.6 40 4.4 34 34 NNE 7 11 30.23 1024 10 16 0.00 0.00
5:52 pm 17:52 Sunny 66 18.9 41 5 40 40 S 7 11 30.24 1024 10 16 0.00 0.00
6:52 pm 18:52 Clear 63 17.2 39 3.9 41 41 SSW 6 9 30.24 1024 10 16 0.00 0.00
7:52 pm 19:52 Clear 62 16.7 41 5 46 46 SSW 5 7 30.26 1025 10 16 0.00 0.00
8:52 pm 20:52 Clear 57 13.9 47 8.3 69 69 S 7 11 30.27 1025 10 16 0.00 0.00
9:52 pm 21:52 Clear 57 13.9 46 7.8 67 67 SW 5 7 30.29 1026 10 16 0.00 0.00
10:52 pm 22:52 Clear 55 12.8 47 8.3 74 74 SSW 5 7 30.30 1026 10 16 0.00 0.00
11:52 pm 23:52 Clear 55 12.8 47 8.3 74 74 SSW 3 6 30.30 1026 10 16 0.00 0.00

Powered by AerisWeather